Location: ????????
(55.0097°N, 38.5678°E)
Time: 04:24:10
(UTC+00:00)

Cosmos 2322 Rocket - Visible Passes

Search period start: 20 July 2024 00:00
Search period end: 30 July 2024 00:00
Orbit: 831 x 851 km, 71.0° (Epoch: 19 July)

Date Brightness Start Highest point End Pass type
(mag) Time Alt. Az. Time Alt. Az. Time Alt. Az.
23 Jul 4.6 00:25:46 10° SE 00:28:56 15° E 00:32:09 10° ENE visible
24 Jul 4.6 00:10:44 10° SE 00:13:44 15° E 00:16:45 10° ENE visible
24 Jul 4.6 23:55:44 10° SE 23:58:31 14° E 00:01:20 10° ENE visible
25 Jul 4.6 23:40:45 10° ESE 23:43:19 13° E 23:45:53 10° ENE visible
26 Jul 4.6 23:25:48 10° ESE 23:28:07 13° E 23:30:25 10° ENE visible
27 Jul 4.6 23:10:54 10° ESE 23:12:54 12° E 23:14:55 10° ENE visible
28 Jul 4.6 22:56:03 10° ESE 22:57:42 11° E 22:59:21 10° ENE visible
29 Jul 2.8 00:34:58 10° S 00:40:29 55° ESE 00:46:03 10° NE visible
29 Jul 4.7 22:41:20 10° ESE 22:42:29 11° E 22:43:40 10° E visible
